Preview of NWS' New Version of Forecast
This preview is not operational and should not be used for support decisions.

Regional Weather Roundup (RWR)

Issued by National Weather Service (NWS)

                            
000
ASUS44 KMEG 221110
RWRTN 
TENNESSEE HOURLY STATE WEATHER ROUNDUP
NATIONAL WEATHER SERVICE MEMPHIS TN
600 AM CDT MON APR 22 2019

TNZ002-004-019-021-049-052-054-088>092-221200-
WEST TENNESSEE
  
CITY           SKY/WX    TMP DP  RH WIND       PRES   REMARKS
MEMPHIS INTL   FAIR      54  48  80 S6        30.13R                  
NWS MEMPHIS      N/A     52 N/A N/A MISG        N/A                   
JACKSON        FAIR      47  45  93 CALM      30.15R                  
DYERSBURG      FAIR      52  50  93 SE3       30.14R                  
SOMERVILLE     CLEAR     54  48  82 CALM      30.13R                  
COVINGTON      CLEAR     52  50  93 CALM      30.13R                  
UNION CITY     CLEAR     50  48  93 CALM      30.12R                  
BOLIVAR        CLEAR     46  45  93 CALM      30.14R                  
PARIS          CLEAR     50  45  81 CALM      30.14R                  
HUNTINGDON     CLEAR     50  46  87 CALM      30.14R                  
LEXINGTON        N/A     45  45 100 CALM      30.15R                  
SELMER         CLEAR     48  46  93 CALM      30.14R                  
SAVANNAH       CLEAR     46  45  93 CALM      30.15R                  
$$

TNZ008-025-027-028-033-062-065-066-221200-
NORTH MIDDLE TENNESSEE
  
CITY           SKY/WX    TMP DP  RH WIND       PRES   REMARKS
NASHVILLE      FAIR      46  41  82 CALM      30.18R                  
DICKSON        SUNNY     54  39  58 CALM      30.15S                  
PORTLAND       CLEAR     46  39  76 S7        30.16R                  
CLARKSVILLE    FAIR      49  38  65 SE3       30.15R                  
LEBANON        SUNNY     41  39  93 CALM      30.17R                  
SMYRNA         FAIR      43  42  97 S3        30.19R                  
MURFREESBORO   SUNNY     43  41  93 CALM      30.17R                  
COOKEVILLE     CLEAR     37  37 100 CALM      30.18S                  
LIVINGSTON     SUNNY     48  36  61 SW3       30.17S                  
GALLATIN       SUNNY     43  41  93 CALM      30.21R                  
CROSSVILLE     FAIR      39  37  92 CALM      30.21R                  
ROCKWOOD       SUNNY     45  36  70 CALM      30.20R                  
$$

TNZ061-075-076-078-094-096-097-221200-
SOUTH MIDDLE TENNESSEE
  
CITY           SKY/WX    TMP DP  RH WIND       PRES   REMARKS
LAWRENCEBURG   SUNNY     45  43  93 CALM      30.17R                  
LEWISBURG      SUNNY     39  39 100 CALM      30.18R                  
FAYETTEVILLE   CLEAR     46  43  87 CALM      30.18R                  
TULLAHOMA      CLEAR     41  39  93 CALM      30.18R                  
WINCHESTER     CLEAR     43  41  93 CALM      30.19R                  
MCMINNVILLE    CLEAR     39  37  93 CALM      30.19S                  
COLUMBIA       CLEAR     43  43 100 CALM      30.16R                  
SHELBYVILLE    CLEAR     45  41  87 E3        30.18R                  
$$

TNZ017-018-042-046-047-221200-
NORTHEAST TENNESSEE
  
CITY           SKY/WX    TMP DP  RH WIND       PRES   REMARKS
TRI CITIES     FOG       39  37  92 CALM      30.23R VSB 1/8          
ELIZABETHTON   FAIR      39  39 100 CALM      30.22R FOG              
GREENEVILLE    SUNNY     41  41 100 CALM      30.21R                  
$$

TNZ012-013-036-069-073-074-221200-
CENTRAL EAST TENNESSEE
  
CITY           SKY/WX    TMP DP  RH WIND       PRES   REMARKS
KNOXVILLE      FAIR      44  40  85 CALM      30.20R                  
OAK RIDGE      FAIR      44  41  89 CALM      30.23R                  
DOWNTOWN KNOXV FOG       43  43 100 CALM      30.22R VSB 0            
GATLINBURG     CLEAR     41  41 100 CALM      30.21R                  
MORRISTOWN     CLEAR     43  43 100 CALM      30.20R                  
JACKSBORO      CLEAR     41  39  93 CALM      30.25R                  
$$

TNZ083-085-099-221200-
SOUTHEAST TENNESSEE
  
CITY           SKY/WX    TMP DP  RH WIND       PRES   REMARKS
CHATTANOOGA    FAIR      45  42  89 CALM      30.21R                  
DAYTON         SUNNY     41  41 100 CALM      30.20R                  
$$

SKY/WX REPORTED AS FAIR MEANS FEW OR NO CLOUDS BELOW
12 THOUSAND FEET.